Location: Calvera
(42.3882°N, 0.6137°E)
Time: 18:51:11
(UTC+00:00)

Cosmos 2278 - Pass Details

Date: 28 October 2020
Orbit: 842 x 851 km, 71.1° (Epoch: 23 November)

Event Time Altitude Azimuth Distance (km) Brightness Sun altitude
Exits shadow 05:06:13 - 333° (NNW) 3,327 6.5 -15.3°
Reaches altitude 10° 05:08:29 10° 331° (NNW) 2,468 5.8 -14.9°
Maximum altitude 05:14:05 67° 250° (WSW) 911 3.6 -13.9°
Drops below altitude 10° 05:19:39 10° 168° (SSE) 2,451 6.3 -12.9°
Sets 05:22:06 0° 166° (SSE) 3,382 7.1 -12.4°
